Location: Unspecified
(64.9000°N, 0.0000°E)
Time: 21:23:29
(UTC+00:00)

Transit 2A Rocket - Pass Details

Date: 24 June 2019
Orbit: 588 x 915 km, 66.7° (Epoch: 18 July)

Event Time Altitude Azimuth Distance (km) Brightness Sun altitude
Rises 10:49:36 0° 214° (SSW) 3,536 8.7 46.9°
Reaches altitude 10° 10:52:13 10° 209° (SSW) 2,580 8.2 47.0°
Maximum altitude 10:58:00 50° 136° (SE) 1,096 7.9 47.2°
Drops below altitude 10° 11:03:27 10° 63° (ENE) 2,435 7.7 47.4°
Sets 11:05:52 0° 58° (ENE) 3,321 8.2 47.5°
